Location: Mason Neck State Park
(38.6428°N, 77.1981°W)
Time: 16:37:08
(UTC-04:00)

Daily predictions for brighter satellites

Satellite Brightness Start Highest point End
(mag) Time Altitude Azimuth Time Altitude Azimuth Time Altitude Azimuth
H-2A R/B 2.9 21:00:39 10° SE 21:04:50 39° ENE 21:09:01 10° N
SPOT 5 4.1 21:01:52 10° ESE 21:05:40 26° ENE 21:09:40 10° NNE
USA 186 2.4 21:05:57 10° S 21:08:05 38° W 21:10:20 10° NNW
CZ-4 DEB 2.9 21:04:55 10° S 21:08:07 77° W 21:11:20 10° NNW
Cosmos 2333 Rocket 4.1 21:04:41 10° N 21:08:25 17° NE 21:12:08 10° E
Cosmos 2297 Rocket 4.0 21:12:05 10° ESE 21:13:02 10° E 21:13:58 10° E
H-2A R/B 3.8 21:11:58 10° S 21:15:38 45° W 21:19:17 10° NNW
Cosmos 2219 Rocket 3.6 21:11:58 10° N 21:16:28 24° NE 21:20:58 10° ESE
Hubble Space Telescope 2.7 21:15:05 10° SSW 21:17:15 14° SSE 21:19:26 10° SE
YAOGAN 11 4.3 21:14:28 10° S 21:18:46 77° WSW 21:23:11 10° NNW
OTV 4 1.2 21:17:17 10° SW 21:19:59 32° SSE 21:22:42 10° E
COSMOS 2428 3.1 21:15:21 10° NNW 21:20:54 51° ENE 21:26:23 10° SE
Cosmos 1726 3.6 21:18:47 10° NNE 21:21:47 22° ENE 21:24:31 11° SE
DELTA 2 R/B (1) 4.2 21:19:39 10° W 21:24:55 45° SSW 21:29:53 11° SE
Cosmos 1680 Rocket 3.6 21:22:52 10° NNW 21:28:08 80° WSW 21:33:24 10° SSE
Cosmos 1437 Rocket 4.0 21:25:39 10° NNW 21:29:16 41° W 21:32:56 10° SSW
Cosmos 2058 3.1 21:26:08 10° S 21:30:06 52° E 21:34:06 10° NNE
Meteor 1-4 Rocket 4.3 21:27:40 10° NNE 21:30:26 19° ENE 21:32:34 13° ESE
Cosmos 2151 3.0 21:26:43 10° S 21:30:55 86° W 21:35:08 10° N
NOSS 3-1 (A) 3.3 21:30:48 10° SSW 21:36:36 73° ESE 21:42:59 10° NE
Cosmos 405 4.1 21:33:38 10° NNW 21:37:06 44° W 21:40:32 10° SSW
Cosmos 1898 Rocket 3.6 21:33:00 10° S 21:38:02 57° ESE 21:43:09 10° NNE
Terra 4.1 21:37:57 10° ENE 21:38:18 10° ENE 21:38:37 10° ENE
H-2A R/B 4.1 21:35:32 10° E 21:38:21 14° ENE 21:41:11 10° NNE
Cosmos 2237 4.2 21:36:40 10° NNW 21:42:26 83° ENE 21:47:32 13° SSE
Delta 2 Rocket 3.3 21:38:59 10° W 21:42:39 46° S 21:44:58 18° ESE
Cosmos 1437 4.1 21:40:29 10° SSW 21:43:36 42° WNW 21:46:45 10° N
Nadezhda 2 Rocket 4.4 21:37:32 10° S 21:43:39 86° E 21:49:47 10° N
ALOS 4.4 21:40:32 10° SSW 21:44:17 24° W 21:48:04 10° NW
Aureole 3 4.4 21:39:40 10° S 21:46:08 82° W 21:51:14 10° N
MetOp-B 4.4 21:42:05 14° SE 21:46:37 54° ENE 21:51:50 10° N
Cosmos 1939 Rocket 3.0 21:42:58 10° S 21:46:52 70° W 21:50:45 10° NNW
Cosmos 2219 3.9 21:42:43 10° SW 21:48:22 60° WNW 21:54:05 10° NNE
Tiangong 1 2.0 21:46:02 10° W 21:49:04 48° NNW 21:52:05 10° ENE
Nimbus 7 Rocket 4.4 21:44:13 10° NNE 21:50:06 90° NNE 21:55:59 10° SSW
SPOT 1/Viking Rocket 4.2 21:46:52 16° SE 21:50:33 40° ENE 21:55:21 10° N
Cosmos 2237 Rocket 3.3 21:47:39 10° N 21:52:42 31° ENE 21:56:27 16° ESE
Cosmos 2150 Rocket 4.1 21:48:44 10° SSW 21:54:10 83° ESE 21:59:40 10° NNE
OAO 2 Rocket 3.6 21:49:11 10° WSW 21:54:22 55° S 21:59:04 13° E
CZ-4 SHROUD 3.1 21:55:57 21° SSE 21:57:53 80° ENE 22:01:01 10° N
Cosmos 2082 4.2 21:52:40 10° S 21:57:57 40° ESE 22:03:16 10° NE
Cosmos 2333 4.2 21:52:16 10° NNW 21:58:02 82° ENE 22:02:25 18° SSE
ATLAS 2AS CENTAUR R/B 3.2 21:51:52 10° S 21:58:44 45° ESE 22:06:11 10° NE
Sich 1 3.0 21:54:31 10° S 21:58:54 69° E 22:03:16 10° NNE
Cosmos 2360 Rocket 3.6 21:56:29 10° NW 22:01:30 33° WSW 22:06:30 10° SSW
Cosmos 1626 3.5 22:02:07 20° ESE 22:02:46 21° E 22:05:39 10° NE
Cosmos 1271 Rocket 3.1 21:59:53 10° N 22:03:38 47° ENE 22:05:31 26° SE
ERS-1 Rocket 4.4 22:01:23 10° SSW 22:05:57 35° W 22:10:34 10° NNW
Cosmos 1633 Rocket 3.0 22:02:36 12° S 22:06:42 80° E 22:11:05 10° N
YAOGAN 6 2.6 22:04:58 25° SSE 22:06:54 66° ENE 22:10:28 10° N
Iridium 2 4.4 22:05:33 26° SE 22:07:02 36° E 22:10:36 10° NNE
ATLAS 3B R/B 3.9 22:02:21 10° NNW 22:08:26 30° NE 22:13:27 13° E
ERBS 2.5 22:04:58 10° SW 22:08:28 77° NW 22:11:58 10° NE
Envisat 3.7 22:08:23 10° S 22:13:17 51° W 22:18:15 10° NNW
Cosmos 2242 Rocket 3.6 22:10:03 10° N 22:14:33 72° E 22:17:06 25° SSE
CZ-4 R/B 4.0 22:11:13 10° NNE 22:16:01 53° E 22:18:51 23° SSE
CZ-4C R/B 4.2 22:16:15 24° E 22:17:00 26° ENE 22:19:57 10° NNE
Cosmos 1703 3.2 22:14:44 23° S 22:17:00 70° E 22:20:55 10° NNE
SL-14 R/B 3.9 22:14:42 10° SSW 22:18:35 56° W 22:22:34 10° N
USA 245 1.9 22:21:01 70° ENE 22:21:01 70° ENE 22:23:12 10° N
PSLV R/B 4.5 22:23:16 20° SSW 22:24:52 34° W 22:27:42 10° NNW
Cosmos 220 Rocket 4.5 22:24:08 10° SSW 22:28:29 62° WNW 22:32:53 10° NNE
USA 32 4.0 22:24:08 10° N 22:29:25 87° E 22:32:30 26° S
Cosmos 2227 Rocket 2.1 22:24:04 10° SSW 22:29:43 80° ESE 22:35:24 10° NNE
Cosmos 1937 Rocket 3.9 22:26:54 10° SSW 22:32:05 63° WNW 22:37:15 10° NNE
Cosmos 1300 4.3 22:29:36 10° NNW 22:33:01 31° W 22:35:46 14° SSW
Cosmos 990 Rocket 4.0 22:32:49 10° SSW 22:37:57 80° WNW 22:43:07 10° NNE
H-2A R/B 4.5 22:37:46 10° SW 22:40:56 19° W 22:44:07 10° NW
DELTA 2 DEB (DPAF) 4.2 22:41:00 41° SE 22:42:27 67° ENE 22:46:55 10° N
SPOT 5 4.3 22:40:03 13° SSW 22:43:34 31° W 22:47:52 10° NW
Cosmos 292 Rocket 4.4 22:39:08 10° NNW 22:43:43 50° WSW 22:46:00 27° SSW
ARGOS 3.3 22:44:45 29° S 22:47:35 72° WSW 22:52:59 10° NNW
SL-16 R/B 3.0 22:43:12 10° N 22:48:31 39° ENE 22:50:40 29° ESE
CZ-4B R/B 4.3 22:44:14 10° N 22:49:19 52° WNW 22:54:18 10° SSW
H-2A R/B 4.3 22:44:39 10° SW 22:49:34 43° SSE 23:18:38 10° E
H-2A R/B 4.3 22:44:40 10° SW 22:49:34 43° SSE 23:18:38 10° E
H-2A R/B 4.3 22:44:39 10° SW 22:49:34 43° SSE 23:18:39 10° E
Cosmos 2333 Rocket 2.3 22:47:32 10° NNW 22:53:17 74° WSW 22:55:43 36° S
Cosmos 1455 2.1 22:51:27 10° N 22:55:16 85° W 22:55:49 64° S
Cosmos 2297 Rocket 2.1 22:51:53 18° SSW 22:56:11 89° NW 23:01:52 10° NNE
OTV 4 2.0 22:53:13 10° W 22:54:46 28° WSW 22:54:46 28° WSW
Cosmos 1726 4.4 22:54:10 10° NW 22:57:01 20° W 22:59:13 13° SW
Hubble Space Telescope 3.3 22:54:49 10° SW 22:54:58 11° SW 22:54:58 11° SW
Cosmos 1346 4.1 22:57:45 38° W 22:58:07 40° WNW 23:01:01 10° N
Landsat 7 3.7 22:57:59 46° S 22:59:26 86° WSW 23:04:13 10° NNW
Cosmos 2219 Rocket 2.9 22:55:18 10° NW 23:00:37 46° WSW 23:03:07 28° SSW
NOSS 2-3 (C) 4.0 23:00:19 48° SE 23:00:47 50° ESE 23:06:01 10° NE
Cosmos 1470 Rocket 4.2 22:59:12 25° SW 23:01:24 50° W 23:05:36 10° N
Cosmos 1933 Rocket 4.2 23:00:00 26° SW 23:02:17 52° W 23:06:40 10° N
Cosmos 44 Rocket 3.5 23:04:46 49° SE 23:05:10 50° ESE 23:10:14 10° NE
SL-08 RB Rocket 4.3 23:05:02 34° SSW 23:06:30 48° W 23:10:52 10° NNW
NOSS 0 Rocket 4.4 23:01:00 10° NW 23:06:56 51° WSW 23:09:35 31° SSW
Cosmos 1703 Rocket 4.0 23:03:54 10° N 23:08:07 46° E 23:08:18 45° E
Lacrosse 4 Rocket 1.9 23:03:58 10° NNW 23:08:19 52° ENE 23:08:55 48° E
Nadezhda 1 Rocket 4.2 23:03:15 10° NNW 23:09:17 64° W 23:12:17 31° SSW
Cosmos 1269 Rocket 4.0 23:06:01 10° NNW 23:11:19 70° ENE 23:12:32 52° SE
Cosmos 1933 3.5 23:09:45 10° N 23:13:41 58° ENE 23:13:41 58° ENE
Terra 1.7 23:14:21 58° S 23:15:18 85° W 23:20:05 10° NNW
H-2A R/B 2.2 23:15:25 46° S 23:17:02 75° WSW 23:22:31 10° NNW
COSMOS 2455 2.8 23:14:06 10° NNW 23:20:10 81° ENE 23:21:50 50° SE
NOSS 2-3 (D) 3.8 23:21:09 60° S 23:21:59 74° ESE 23:27:28 10° NE
Cosmos 1125 Rocket 3.7 23:23:43 35° SW 23:25:58 70° WNW 23:31:17 10° NNE
Tiangong 1 2.8 23:23:03 10° WNW 23:25:23 33° NNW 23:25:23 33° NNW
Cosmos 2074 Rocket 4.5 23:25:48 39° ESE 23:26:46 42° E 23:32:37 10° NNE
Cosmos 1048 Rocket 4.0 23:22:07 10° NNW 23:27:31 78° ENE 23:28:25 61° SE
Cosmos 1709 Rocket 3.9 23:27:42 40° SSW 23:30:02 79° W 23:36:10 10° N
Spot 4 3.8 23:29:25 65° SSW 23:30:04 79° WSW 23:34:57 10° NNW
Cosmos 2221 Rocket 3.5 23:26:54 10° N 23:31:28 81° E 23:31:33 81° ESE
Cosmos 2237 Rocket 3.2 23:31:36 10° NW 23:36:45 35° WSW 23:38:17 30° SW
Cosmos 372 Rocket 3.9 23:36:14 67° S 23:36:58 85° ESE 23:42:13 10° NNE
Cosmos 1626 4.3 23:36:48 17° WSW 23:38:05 20° WNW 23:40:57 10° NNW
Cosmos 1900 4.4 23:33:29 10° NW 23:38:23 62° WSW 23:38:38 61° SW
OAO 2 Rocket 3.8 23:33:48 10° W 23:38:02 47° SW 23:38:02 47° SW
Cosmos 389 Rocket 3.7 23:35:46 10° N 23:38:11 37° NNE 23:38:11 37° NNE
Meteor 1-26 Rocket 4.1 23:39:58 10° N 23:45:38 79° E 23:46:26 66° SE
ATLAS 2AS CENTAUR R/B 4.0 23:42:37 10° WSW 23:49:47 44° NW 23:57:26 10° NNE
H-2A R/B 4.4 23:49:41 10° NE 23:51:49 21° ENE 23:51:49 21° ENE
Cosmos 44 3.7 23:55:06 57° E 23:55:06 57° E 23:59:53 10° NE
